Location: Unspecified
(0.0000°N, 0.0000°E)
Time: 04:17:03
(UTC+00:00)

Courier 1B Rocket - Visible Passes

Search period start: 02 September 2014 00:00
Search period end: 12 September 2014 00:00
Orbit: 921 x 1202 km, 28.2° (Epoch: 31 August)

Date Brightness Start Highest point End Pass type
(mag) Time Alt. Az. Time Alt. Az. Time Alt. Az.
02 Sep 7.4 05:08:41 10° N 05:11:13 12° NNE 05:13:43 10° NE visible
02 Sep 5.9 18:27:14 10° SW 18:34:26 42° SSE 18:41:26 11° E visible
02 Sep 5.7 20:20:38 10° WSW 20:27:51 63° NW 20:27:51 63° NW visible
03 Sep 5.4 19:19:19 10° WSW 19:27:06 89° SSE 19:31:19 31° ENE visible
03 Sep 7.3 21:14:29 10° W 21:17:44 22° WNW 21:17:44 22° WNW visible
04 Sep 7.1 04:58:31 10° NNW 05:03:04 20° NNE 05:07:29 10° ENE visible
04 Sep 5.6 18:18:18 10° SW 18:25:50 62° SSE 18:33:34 10° ENE visible
04 Sep 6.2 20:12:28 10° W 20:19:47 43° NNW 20:21:11 40° N visible
05 Sep 7.4 03:58:37 10° N 04:01:46 14° NNE 04:04:51 10° NE visible
05 Sep 5.8 19:10:52 10° WSW 19:18:28 63° NNW 19:24:36 17° NE visible
05 Sep 7.4 21:07:10 10° WNW 21:11:02 19° NW 21:11:02 19° NW visible
06 Sep 6.5 04:49:03 10° NNW 04:54:48 31° NNE 05:00:17 10° E visible
06 Sep 5.5 18:09:38 10° WSW 18:17:12 89° NNW 18:25:04 10° ENE visible
06 Sep 6.8 20:04:43 10° W 20:11:16 30° NNW 20:14:24 23° N visible
07 Sep 6.9 03:50:34 16° N 03:53:37 21° NNE 03:58:24 10° ENE visible
07 Sep 6.4 19:02:47 10° W 19:09:53 42° NNW 19:17:11 10° NE visible
07 Sep 7.6 21:00:33 10° NW 21:04:07 14° NNW 21:04:07 14° NNW visible
08 Sep 7.5 02:53:59 14° NE 02:53:59 14° NE 02:55:57 10° NE visible
08 Sep 5.8 04:40:24 12° NW 04:46:25 48° NNE 04:52:33 10° ESE visible
08 Sep 7.3 19:57:29 10° WNW 20:02:54 20° NNW 20:07:21 13° NNE visible
09 Sep 6.3 03:43:51 30° N 03:45:19 33° NNE 03:51:07 10° E visible
09 Sep 5.1 05:32:17 10° WNW 05:38:56 70° SSW 05:45:14 10° SE visible
09 Sep 7.0 18:55:07 10° W 19:01:25 29° NNW 19:07:56 10° NNE visible
09 Sep 7.8 20:56:16 10° NNW 20:56:28 10° NNW 20:56:40 10° NNW visible
10 Sep 7.4 02:47:18 17° ENE 02:47:18 17° ENE 02:49:17 10° ENE visible
10 Sep 5.1 04:33:43 25° NW 04:37:58 77° NNE 04:44:25 10° ESE visible
10 Sep 7.6 19:50:58 10° NW 19:54:43 14° NNW 19:58:30 10° N visible
11 Sep 5.6 03:37:09 51° NE 03:37:09 51° NE 03:43:20 10° ESE visible
11 Sep 5.5 05:24:03 10° W 05:30:27 44° SSW 05:36:30 10° SE visible
11 Sep 7.4 18:47:58 10° WNW 18:53:06 20° NNW 18:58:23 10° NNE visible
